Showing default

OPS 9325 (IDSCS 12), 2652

Orbit data source: Space-Track

OPS 9325 (IDSCS 12), 2652 is a payload satellite owned by USAF SSD (US) in GEO that was launched on Wed, 18 Jan 1967 UTC via a TITAN IIIC launch vehicle from the Air Force Eastern Test Range (AFETR). Payload-class satellites include a variety of spacecraft equipped with specific instruments for various scientific and technological missions. These include communications satellites like Starlink; space stations such as the ISS; scientific satellites like the Hubble; Earth observation satellites from companies like Planet Labs, Umbra, and HawkEye 360; GPS; miniature CubeSats for education and research; and military/defense satellites.

Loading next visibility...
Identifier
2652, 1967-003E
Orbit
GEO
Last TLE update
1 day ago
Origin
Manufacturer
Philco-Ford WDL
Mission
Non-operational Defense Communications
Bus & Motor
IDCSP, Unknown motor
Mass
45 kg wet, 45 kg dry
Launch date (UTC)
1967-01-18 (58 years ago)
Launch vehicle
TITAN IIIC
Launch site
Air Force Eastern Test Range (AFETR)
Object type
Payload
Rocket body
Debris
Shape & HBR
Ico Poly, 0.9 m
Radar Cross Section
0.926 m², Small (<0.1 m²)

Expand to show TLE details & history

TLE from 1 day ago
0 OPS 9325 (IDSCS 12)
1 02652U 67003E   25128.15294914 -.00000078  00000-0  00000-0 0  9990
2 02652   7.4939  49.4074 0038957  67.7734 292.5332  1.07943357135748
Epoch: 2025-05-08T03:40Z
Definitive object data (Epoch: 2025-05-08T03:40:14.805Z)
Latitude
-0.00001°
Longitude
128.0169°
Altitude
33,704.326 km
Speed
3.156 km/s
True Right ascension
03h 17m 13s
True Declination
0° 00' 00"
Sunlit
Object was in daylight at TLE epoch
Visualization TLE readout
Latitude
6.39997°
Longitude
-173.48527°
Altitude
33,609.556 km
Speed
3.163 km/s
Apparent Right ascension
06h 43m 43s
Apparent Declination
0° 32' 18"
Sunlit
Object is in daylight
Visualization observer readout
Local Sidereal Time
13:39:14
Azimuth
279.425° WNW
Elevation
-10.251°
Doppler factor
1
Orbital elements
Apogee altitude
33,921.858 km
Perigee altitude
33,609.083 km
Semi-major axis
40,143.607 km
Eccentricity
0.0038957
Inclination
7.4939°
RAAN
49.4074°
Arg. of periapsis
67.7734°
True anomaly
292.1201°
Mean anomaly
292.5332°
Eccentric anomaly
292.32673°
Mean motion
0.26985 °/min
BSTAR
Unknown
Orbital period
1334.09 mins
Loading historical data...
2652 neighbors
Loading maneuver chart data...
Loading SW <> Apogee altitude chart data...
Loading historical data...
Loading historical data...
Loading historical data...
Loading historical data...
Loading historical data...
Loading historical data...
Loading historical data...

OPS 9325 (IDSCS 12) Visibility forecast

Observer location: undefined°, undefined°

Span
Click to sort rows by Start time (UTC) header in descending order
Start Az.
Max El. time (UTC)
Max El. Az.
Max El.
End time (UTC)
End Az.
74 mins2025-05-10 04:16:33.901Z262.824° W2025-05-10 05:30:33.901Z262.116° W11.659°2025-05-10 05:30:33.901Z262.116° W
|